Regional Weather Roundup
Issued by NWS Little Rock, AR

Home | Current Version | Previous Version | Text Only | Print | Product List | Glossary Off
Versions: 1 2 3 4 5 6 7 8 9 10 11 12 13 14 15 16 17 18 19 20 21 22 23 24 25 26 27 28 29 30 31 32 33 34 35 36 37 38 39 40 41 42 43 44 45 46 47 48 49

000
ASUS44 KLZK 030105
RWRLZK

WEATHER ROUNDUP FOR ARKANSAS
NATIONAL WEATHER SERVICE LITTLE ROCK AR
800 PM CDT SUN AUG 02 2015

NOTE: "FAIR" INDICATES FEW OR NO CLOUDS BELOW 12,000 FEET WITH NO
SIGNIFICANT WEATHER AND/OR OBSTRUCTIONS TO VISIBILITY.

ARZ001-003-010-029-030200-
NORTHWEST ARKANSAS

CITY           SKY/WX    TMP DP  RH WIND       PRES   REMARKS
FAYETTEVILLE   CLEAR     81  71  71 CALM      29.93S HX  85
FORT SMITH     PTCLDY    88  69  53 E7        29.86S HX  92
HARRISON       CLEAR     82  69  64 CALM      29.94S HX  85
BENTONVILLE    CLEAR     84  63  48 CALM      29.94S HX  85
ROGERS         CLEAR     85  65  51 MISG      29.94S HX  86
SILOAM SPGS    CLEAR     84  64  51 CALM      29.91S HX  86
HIGHFILL       CLEAR     85  68  56 CALM      29.93S HX  88
SPRINGDALE     CLEAR     86  64  48 W3        29.95S HX  87
$$

ARZ004-005-016-030200-
NORTH CENTRAL ARKANSAS

CITY           SKY/WX    TMP DP  RH WIND       PRES   REMARKS
BATESVILLE     CLEAR     88  70  55 SE3       29.89R HX  92
FLIPPIN        MOCLDY    84  64  51 CALM      29.88F HX  86
MTN HOME       PTCLDY    81  69  67 SW3       29.90S
$$

ARZ040-041-030200-
WEST CENTRAL ARKANSAS

CITY           SKY/WX    TMP DP  RH WIND       PRES   REMARKS
MENA           PTCLDY    90  55  31 CALM      29.92R HX  88
MOUNT IDA      CLEAR     83  64  52 CALM      29.88S
$$

ARZ009-017-025-026-028-030200-
NORTHEAST ARKANSAS

CITY           SKY/WX    TMP DP  RH WIND       PRES   REMARKS
JONESBORO      PTCLDY    85  68  56 S5        29.88S HX  88
NEWPORT        CLEAR     86  71  60 S6        29.89S HX  91
WALNUT RIDGE   PTCLDY    86  66  51 S7        29.87S HX  88
BLYTHEVILLE    MOCLDY    85  74  69 SW3       29.88F HX  92
$$

ARZ022-023-033-042-044-030200-
CENTRAL ARKANSAS

CITY           SKY/WX    TMP DP  RH WIND       PRES   REMARKS
LITTLE ROCK    PTCLDY    89  67  47 SE7       29.88S HX  92
N LITTLE ROCK  PTCLDY    89  68  51 SE7       29.88S HX  92
JACKSONVILLE   CLEAR     89  67  47 S6        29.88R HX  92
SEARCY         CLEAR     85  72  65 CALM      29.89S HX  91
HOT SPRINGS    CLEAR     92  58  31 SW5       29.88S HX  91
RUSSELLVILLE   CLEAR     84  65  52 CALM      29.86S HX  86
$$

ARZ036-030200-
EAST ARKANSAS

CITY           SKY/WX    TMP DP  RH WIND       PRES   REMARKS
WEST MEMPHIS   PTCLDY    83  73  72 CALM      29.88S HX  89
$$

ARZ050-053-066-070-073-030200-
SOUTHWEST ARKANSAS

CITY           SKY/WX    TMP DP  RH WIND       PRES   REMARKS
ARKADELPHIA    FAIR      90  66  44 S5        29.88R HX  92
CAMDEN         CLEAR     84  68  58 CALM      29.88R HX  87
TEXARKANA      CLEAR     89  63  41 CALM      29.88S HX  90
EL DORADO      CLEAR     86  68  54 CALM      29.88S HX  89
DE QUEEN       CLEAR     86  67  52 SE3       29.86S HX  89
$$

ARZ056-057-069-030200-
SOUTHEAST ARKANSAS

CITY           SKY/WX    TMP DP  RH WIND       PRES   REMARKS
PINE BLUFF     CLEAR     85  71  63 E3        29.89R HX  90
STUTTGART      CLEAR     90  66  45 MISG      29.89S HX  92
MONTICELLO     CLEAR     86  69  56 CALM      29.89R HX  90

$$




USA.gov is the U.S. government's official web portal to all federal, state and local government web resources and services.